Forside
METAR-TAF:

METAR-TAF

Lufthavne :

Grand Rapids/Itasca County Airport (Gordon Newstrom Field)

Grand Rapids, Minnesota, USA

Breddekreds: 47-13N, længdekreds: 093-31W, højde: 413 m

Aktuelle vejr

Denne rapport blev lavet for 1 time og 1 minutter siden, kl. 05:56 UTC
Vind 8 kt fra vest
Temperatur 5°C
Fugtighed 56%
Tryk 1008 hPa
Sigt: 16.1 km
skyfri

METAR: KGPZ 290556Z AUTO 28008KT 10SM CLR 05/M03 A2976 RMK AO2 SLP090 T00501033 10050 21017 400721044 51006

Tid: 00:57 (06:57 UTC)


TAF: fraværende

Vejrobservationer og prognoser fra mere end 4000 lufthavne (METAR og TAF).

De gule og røde prikker repræsenterer de meteorologiske stationer.

Flyt musen over at se navnet på stationen.

Så klik over at se vejr observationer og prognoser.

At skifte det kort: Klik på de grønne knapper med et sort kors for at zoome ind; på den grønne knap med en bindestreg for at zoome ud; eller på de grønne pile for tilstødende kort.


METAR-TAF: